RH
21 36 51 50 51 61 61 57 61 67 71 74 73 69 62 61 63 63 64 64 68 71 76 84 88 86 85 83 79 80 84 83 83 86 83 76 63 50 51 61 71 68 61 63 71 75 76 77 77 73 70 70 72 74 78 80 79 81 84 85 82 83 89 93 94 94 91 89 87 87 87 83 79 73 70 70 71 71 71 54 21 3 2 3 2
31 47 64 62 59 69 68 57 59 64 70 73 73 72 67 64 64 64 64 63 64 65 68 76 82 83 82 80 77 79 83 80 78 81 78 71 58 48 54 67 74 69 60 63 72 75 75 77 76 75 75 74 72 71 76 79 78 79 82 83 81 81 86 89 91 93 92 91 90 88 85 80 79 73 69 70 69 72 62 30 5 2 3 1 3
57 63 72 67 61 70 71 60 58 62 69 74 75 76 71 67 66 65 65 62 61 64 64 69 76 80 79 78 76 76 80 77 75 76 72 64 53 50 62 72 74 68 60 63 74 75 73 75 76 75 75 75 74 71 72 75 77 80 82 84 83 82 86 90 93 93 91 92 92 89 83 79 76 68 66 66 68 71 49 13 2 5 4 4 4
72 69 71 71 70 76 73 61 59 64 71 73 75 76 72 68 66 66 66 64 61 62 65 70 76 79 79 80 77 74 77 77 78 80 72 63 55 57 69 75 72 66 61 67 76 75 73 75 75 75 74 74 75 76 76 78 81 84 83 85 85 81 79 80 85 89 91 91 91 90 85 80 72 63 64 64 69 71 37 4 5 8 7 8 3
69 68 67 72 73 69 62 57 62 68 70 71 71 72 72 68 66 65 66 66 63 61 66 76 82 83 83 85 84 79 80 81 82 82 75 67 63 64 71 76 71 65 65 73 78 75 75 78 76 74 73 74 75 77 81 83 85 88 85 84 81 76 71 69 72 77 84 91 92 90 85 79 71 63 66 65 70 71 33 3 9 11 10 12 10
62 57 55 62 61 56 59 62 66 68 67 68 68 69 71 70 66 66 66 66 65 63 66 75 84 87 86 87 86 82 82 82 79 78 74 69 67 68 73 77 71 65 69 76 77 76 78 81 79 75 73 76 78 78 82 84 85 84 79 75 73 73 72 70 70 71 79 88 92 94 88 80 72 66 71 69 70 69 36 8 13 17 16 19 22
67 60 55 59 55 51 58 60 55 54 59 65 68 70 71 71 68 67 66 65 65 65 66 72 82 88 87 85 81 78 78 77 76 78 77 71 67 70 76 79 71 67 72 77 77 78 83 86 84 80 77 77 78 78 80 80 78 74 67 63 65 70 72 72 73 73 77 83 87 93 93 90 84 76 76 74 70 66 41 17 17 23 24 24 29
69 68 67 68 61 47 41 40 37 38 54 66 67 67 70 71 71 70 68 67 65 65 67 69 77 84 87 85 80 75 74 73 73 79 83 79 73 75 81 80 72 70 75 77 78 81 86 89 86 83 81 78 76 73 72 71 68 64 59 56 56 60 64 68 73 74 75 79 84 88 90 93 92 84 79 75 71 65 46 28 25 32 34 31 33
63 62 62 64 65 52 33 29 27 31 53 64 59 63 72 73 73 72 70 68 66 66 68 70 74 80 84 83 80 77 75 73 73 79 85 84 79 82 85 82 74 72 75 77 80 84 88 88 85 83 80 77 73 67 63 61 58 54 51 50 51 54 59 66 71 73 76 82 86 89 91 93 92 87 82 77 74 69 57 47 42 42 42 37 37
60 58 54 52 56 50 35 30 30 38 58 65 61 68 75 75 74 73 70 68 68 68 69 71 74 78 80 79 78 78 77 76 79 84 88 85 82 87 91 87 79 75 76 79 83 88 90 88 84 82 78 74 70 64 59 57 53 49 47 48 52 56 59 64 68 72 79 85 86 87 90 92 91 88 84 78 76 73 68 61 50 45 44 37 38
64 65 61 54 50 41 32 30 33 49 70 76 74 75 76 77 75 73 71 69 68 69 70 72 74 76 76 76 78 79 77 76 80 88 89 85 83 85 86 86 84 81 79 82 86 89 90 87 82 79 75 71 67 63 59 56 51 48 49 50 52 54 57 64 72 76 79 78 75 75 76 80 85 84 82 80 74 70 70 62 47 44 44 37 39
63 68 69 66 62 55 50 47 49 66 81 80 78 78 78 79 76 73 73 71 68 68 69 72 74 75 76 77 80 81 78 74 77 84 85 83 82 81 81 82 85 87 86 86 88 88 86 82 78 74 71 68 65 62 58 55 52 51 51 50 50 51 53 58 66 73 77 74 69 66 59 57 61 63 69 75 67 60 63 58 45 40 40 37 42
63 68 70 69 65 61 60 62 69 82 82 74 75 80 81 79 75 73 73 72 70 67 68 73 75 77 79 81 83 83 79 74 75 79 81 81 83 83 81 80 83 85 84 85 86 86 84 80 75 71 69 68 65 62 58 54 53 54 53 52 50 49 49 50 51 57 66 70 66 57 42 32 33 37 46 51 46 46 55 57 48 40 37 38 45
62 69 70 69 63 57 55 57 67 80 81 77 79 83 82 80 76 74 73 73 71 67 69 74 77 79 80 82 84 83 79 75 77 79 81 83 85 85 83 80 80 80 80 83 86 87 85 80 75 71 71 69 66 62 59 56 56 56 55 54 51 48 46 44 42 42 46 50 50 43 31 23 21 23 27 28 26 32 41 44 43 41 40 41 49
55 68 70 64 55 52 54 55 60 72 81 84 87 88 84 80 76 74 74 74 71 69 70 73 77 80 82 83 83 80 75 75 78 82 86 90 89 87 85 82 80 81 83 87 89 89 86 80 76 74 74 73 68 64 61 59 59 59 58 56 51 46 40 36 34 32 31 33 35 31 25 20 17 17 19 20 19 19 19 22 27 33 37 40 50
48 65 71 64 54 49 52 53 56 67 80 85 87 86 82 77 76 75 74 73 71 70 70 73 79 82 83 85 83 76 72 74 80 88 93 94 90 88 86 83 82 85 88 90 91 89 85 81 78 78 79 77 71 65 64 63 62 62 60 55 48 39 30 25 22 21 23 26 27 22 18 15 14 13 14 13 11 8 6 8 14 24 31 35 45
42 53 58 59 59 57 54 53 54 64 78 82 78 75 74 75 76 75 76 77 75 71 70 74 80 83 85 86 82 72 67 71 81 90 94 93 93 94 91 87 88 90 91 90 90 88 84 81 80 81 81 79 73 68 67 66 65 63 60 51 39 27 19 14 11 13 18 20 17 13 10 9 7 6 6 5 4 3 3 3 6 17 27 30 34
37 42 42 45 51 56 54 50 48 53 64 67 65 70 77 79 75 73 75 76 73 72 72 75 80 84 86 85 78 68 66 74 83 90 92 92 96 98 95 93 93 92 90 89 90 87 83 82 83 84 82 78 73 69 68 67 65 63 56 43 28 15 9 7 5 8 12 11 7 5 4 4 4 3 3 3 2 3 3 3 2 5 16 27 29
37 47 50 51 51 50 46 44 46 55 65 67 71 81 87 85 80 76 75 74 74 76 75 77 82 84 87 85 75 68 72 80 87 93 93 93 97 98 96 96 96 92 89 88 88 85 83 84 84 85 83 78 73 69 69 67 63 58 47 32 18 8 4 4 4 5 5 4 4 3 3 3 3 3 3 3 3 3 2 3 3 3 12 27 29
31 45 55 56 50 42 34 33 44 59 72 77 83 91 91 88 86 83 80 80 81 80 77 79 82 84 87 87 78 74 79 85 90 94 93 95 99 99 97 98 96 91 88 87 87 86 85 86 84 83 81 77 72 70 69 65 58 49 35 20 10 4 3 3 4 4 3 3 3 3 3 3 3 3 3 3 3 3 3 2 3 5 9 16 16
20 33 45 48 45 35 27 33 52 70 81 85 90 95 94 93 92 87 84 85 84 81 79 79 81 84 87 86 82 81 83 86 89 91 92 96 100 100 99 99 95 89 87 88 89 89 89 88 86 83 79 75 73 72 68 59 48 37 22 11 5 3 3 3 3 3 2 3 3 3 3 3 3 3 3 3 3 3 4 3 3 4 6 7 8
13 20 30 36 33 26 30 50 72 84 87 88 92 97 97 96 94 88 87 88 85 81 81 80 82 84 84 85 87 87 85 86 88 92 96 98 99 99 100 99 95 90 90 91 91 92 93 92 90 85 80 75 74 73 65 49 37 26 12 5 4 2 3 3 2 3 2 3 3 3 3 3 3 3 3 3 3 3 3 3 4 5 6 8 9
13 16 21 24 19 21 40 63 78 84 83 86 94 98 96 95 91 87 87 87 84 81 81 82 85 86 86 88 91 90 90 92 93 95 98 99 98 98 97 97 94 92 95 95 95 96 97 97 94 87 80 76 76 73 57 38 26 17 7 4 3 2 3 3 2 2 3 3 3 3 3 4 3 3 3 3 3 3 4 4 5 6 7 9 9
13 18 20 17 17 30 53 71 80 84 84 89 97 98 97 97 90 85 87 87 83 83 85 87 89 90 91 93 94 92 93 97 98 97 98 99 97 93 91 94 95 96 98 98 98 99 100 100 95 87 79 77 79 71 49 28 18 10 4 4 3 3 3 3 3 3 3 3 3 3 4 4 4 3 3 4 4 3 4 5 6 6 8 9 9
14 20 22 25 34 47 61 72 78 80 82 89 96 97 99 97 85 81 89 90 85 86 90 93 94 96 97 98 98 95 94 97 98 97 98 99 97 90 89 93 97 99 100 99 100 100 99 99 93 84 80 80 81 71 42 20 12 6 4 4 3 3 3 2 3 3 3 4 3 3 4 3 4 4 3 4 4 4 5 6 7 8 8 9 9
17 18 21 29 44 56 64 70 73 75 82 89 93 96 100 94 82 81 91 91 88 92 97 98 98 99 100 100 99 94 92 97 98 94 94 97 96 91 90 95 99 100 100 99 100 100 99 98 89 82 82 83 82 68 36 13 9 5 3 4 3 4 4 3 4 4 4 5 4 4 4 3 4 3 3 4 4 4 5 5 7 8 8 9 9
18 17 22 32 46 57 62 66 71 77 83 88 90 95 98 92 84 89 96 92 90 96 99 100 100 100 100 100 100 96 94 97 98 93 91 95 97 94 92 98 101 100 100 99 98 99 99 95 86 83 86 84 79 62 32 11 8 5 3 4 4 4 4 4 4 5 5 5 4 4 4 4 4 3 3 4 4 4 5 6 7 8 8 9 9
19 20 29 40 49 56 58 63 72 81 86 90 95 97 96 91 88 94 96 91 93 99 100 100 100 100 100 100 100 99 98 99 98 94 91 94 96 94 95 100 101 99 100 98 96 98 97 91 86 86 90 85 71 53 28 11 7 6 4 4 4 5 5 5 5 5 5 4 4 5 4 4 4 4 4 4 4 4 5 6 7 8 9 9 10
26 26 34 44 50 56 61 68 77 84 88 94 99 100 98 97 96 96 95 92 95 100 100 100 100 100 100 100 99 99 99 99 99 96 93 94 96 95 97 101 100 100 100 98 97 98 94 89 87 89 93 83 62 42 23 11 7 7 5 6 6 6 7 7 6 5 5 5 5 5 5 4 3 4 4 4 4 5 5 6 7 8 9 9 11
38 34 33 40 48 54 61 70 80 86 88 93 99 98 97 99 98 96 96 97 99 100 100 100 100 100 100 100 100 99 98 100 100 96 93 93 96 98 100 101 99 100 100 98 99 97 92 89 90 92 93 82 59 35 18 10 8 8 7 8 9 9 10 11 9 7 6 6 6 5 5 5 4 4 4 4 4 5 5 6 7 8 9 10 11
58 54 45 45 53 61 69 77 83 86 88 91 92 92 96 98 94 91 93 96 97 98 99 100 99 100 100 99 100 100 100 100 100 98 95 94 96 98 100 100 99 100 100 100 98 95 91 90 92 94 93 86 65 36 17 12 9 8 11 11 10 12 14 14 13 12 11 8 6 6 5 5 5 5 4 4 4 5 5 7 8 8 9 10 12
72 73 70 68 70 74 78 80 83 88 90 90 90 94 99 95 86 84 88 93 95 96 98 100 100 100 100 100 100 100 100 100 99 100 99 97 97 99 100 100 100 100 100 100 98 95 91 90 92 94 93 90 74 44 21 14 11 11 14 14 15 18 15 14 18 20 19 16 12 9 6 6 6 5 4 4 4 5 5 7 8 8 9 11 13
75 77 79 82 84 86 86 84 86 92 93 92 93 95 89 77 73 78 82 85 88 91 96 100 100 100 100 100 100 99 100 100 99 100 100 98 98 100 100 97 98 99 100 99 99 97 93 91 93 94 93 91 80 54 30 19 15 15 17 18 22 22 17 21 29 29 27 26 22 15 9 7 7 6 5 4 4 5 6 7 8 8 9 11 14
76 76 80 86 88 90 92 92 94 96 98 98 99 96 87 76 76 79 78 78 82 88 97 100 99 100 100 99 100 100 100 100 100 100 100 98 97 99 100 97 97 99 99 99 100 97 93 92 92 92 92 92 85 65 42 28 24 23 23 24 23 19 20 31 38 35 33 32 27 19 12 9 8 6 5 4 4 5 6 7 8 9 9 12 14
81 75 77 84 88 90 93 95 98 99 98 96 94 95 96 95 94 89 82 82 88 94 99 101 99 100 100 100 100 100 100 100 100 100 99 99 99 99 99 99 98 98 98 99 98 95 93 94 93 91 91 91 88 74 53 40 36 33 31 28 23 20 30 40 43 42 41 35 27 19 14 12 11 8 6 5 5 5 6 7 8 9 10 13 15
81 82 78 77 81 85 87 91 95 95 93 88 88 94 99 99 100 95 86 86 94 100 100 100 100 100 100 100 100 99 100 100 99 100 100 99 99 99 99 100 98 95 97 100 98 94 94 94 93 91 90 90 89 79 62 50 44 40 38 33 27 29 41 47 46 45 42 35 24 15 13 16 17 14 11 8 6 5 6 7 8 9 11 13 15
56 74 82 79 76 78 81 85 87 88 88 85 88 97 100 99 100 98 92 92 98 100 100 99 100 100 100 100 99 99 100 100 99 101 98 93 95 100 101 100 97 93 97 100 97 95 95 95 93 90 88 89 89 82 70 58 48 43 42 36 32 38 48 50 44 40 37 30 21 20 24 26 27 28 25 20 16 12 8 8 8 10 12 14 16
28 46 70 82 79 75 76 78 78 82 87 90 94 96 93 94 99 99 96 98 100 99 99 99 100 100 100 100 99 99 100 100 100 100 95 87 87 92 94 95 95 94 96 97 95 94 95 94 93 91 88 89 89 83 76 66 56 51 48 42 41 47 52 50 42 36 33 26 21 28 36 35 38 47 45 37 32 24 14 8 8 10 13 14 16
21 26 43 63 74 76 76 76 79 80 80 83 91 91 85 88 98 100 97 99 99 93 90 93 97 100 100 99 99 99 100 100 100 99 95 90 87 86 90 96 98 95 95 95 95 94 93 93 94 92 90 90 89 84 79 73 65 60 56 51 51 53 51 48 41 34 29 24 21 27 34 38 50 61 58 49 43 32 18 11 10 11 14 15 16
23 24 25 36 58 71 70 66 70 74 76 80 84 82 80 86 95 101 99 94 85 76 78 89 98 100 100 100 100 100 99 100 100 94 90 93 96 95 97 99 96 95 96 97 94 92 92 94 95 93 91 90 89 86 84 78 70 65 61 58 58 55 47 42 38 30 26 25 23 22 29 45 61 67 63 57 50 35 21 14 11 11 14 15 16
21 25 24 25 40 56 57 50 47 55 69 83 82 73 72 82 95 102 96 81 70 70 79 93 100 100 100 100 100 100 99 100 100 92 87 93 98 99 101 98 93 93 97 96 93 92 96 99 98 94 91 90 89 88 86 81 74 70 66 63 63 58 48 40 36 29 26 28 25 22 33 50 60 63 62 61 53 37 21 13 11 12 14 16 17
21 23 24 23 29 42 50 51 51 57 67 76 76 69 69 84 99 99 86 74 74 80 86 93 98 100 100 100 100 100 98 98 99 97 97 100 98 96 100 100 95 95 98 97 94 95 98 99 98 96 93 91 89 87 83 80 77 74 69 67 67 62 51 43 39 33 29 28 23 24 37 49 55 60 63 61 51 34 17 10 11 12 13 16 19
27 28 24 22 24 30 37 43 51 63 72 75 73 70 76 91 96 87 79 80 83 84 84 89 96 99 99 100 100 99 99 98 96 90 89 95 98 97 100 100 96 95 97 97 97 99 100 97 97 97 96 93 90 86 82 80 79 76 72 70 70 65 55 47 43 37 31 27 26 31 42 49 55 62 61 52 42 29 14 9 10 11 13 16 21
24 27 26 23 21 22 26 32 39 56 74 81 77 75 82 90 85 76 79 84 83 80 82 87 93 97 99 101 100 99 100 100 97 91 84 87 96 99 100 100 95 91 92 95 97 100 98 96 97 98 97 94 90 86 83 81 80 78 75 72 72 68 59 50 46 43 37 31 34 44 52 53 55 55 47 39 36 26 13 8 11 12 13 16 22
19 25 33 34 29 26 29 33 37 55 79 91 90 89 91 88 80 76 82 84 82 84 88 92 97 99 100 100 99 100 101 99 99 99 94 91 97 100 98 98 95 89 90 94 98 100 98 96 98 99 98 95 92 88 85 83 80 79 78 75 73 70 60 47 42 43 40 36 43 57 65 64 59 48 37 35 34 24 15 17 21 19 15 15 23
19 31 47 49 42 37 38 41 46 62 82 91 94 96 96 93 91 92 93 92 93 95 96 98 101 100 99 100 100 100 101 99 99 100 92 83 86 91 90 93 95 92 91 93 96 99 100 98 98 99 99 96 93 90 89 86 82 80 79 78 75 69 58 47 41 40 40 42 51 64 71 71 64 48 34 33 34 30 31 37 38 31 19 15 24
28 38 51 56 53 49 45 46 52 66 81 88 91 93 92 92 96 99 98 98 100 101 99 99 100 99 99 101 100 97 99 99 100 100 90 78 77 84 87 91 95 95 96 98 98 100 100 99 97 97 98 96 92 92 93 91 87 83 81 79 75 67 56 47 42 43 46 48 50 54 60 68 67 53 40 39 42 44 46 49 48 39 24 17 26
46 48 49 51 55 57 53 54 61 71 81 88 92 94 93 94 97 98 96 96 96 96 98 100 99 99 99 99 99 98 99 100 100 100 94 84 81 84 86 88 90 92 94 96 97 98 99 98 95 92 92 93 93 94 95 94 91 85 79 74 68 57 48 42 39 46 57 61 57 53 58 66 66 53 43 45 48 47 47 50 52 45 30 23 32
60 68 69 65 66 67 66 67 72 78 84 90 93 96 97 98 98 95 92 90 85 86 93 97 96 96 98 100 100 99 99 100 100 98 95 90 85 84 85 87 90 93 93 92 93 95 96 97 97 93 89 90 91 92 93 94 91 85 78 70 59 46 38 36 36 43 58 68 66 60 58 61 59 48 39 43 49 48 46 48 50 47 38 30 35
77 87 93 90 86 82 79 79 81 84 89 94 96 98 100 100 98 95 91 85 79 82 91 95 94 96 99 100 100 100 100 100 98 94 92 92 91 91 92 93 94 96 97 96 97 97 97 98 100 98 95 94 94 95 95 90 82 75 68 58 47 39 38 42 44 47 56 67 70 64 57 54 54 45 35 36 45 49 47 44 44 47 45 35 32
92 95 99 99 98 95 92 92 93 94 96 98 99 99 100 100 97 92 88 87 87 91 96 97 97 99 100 99 99 100 100 100 99 95 91 91 94 97 98 98 97 98 99 99 100 100 100 100 100 100 100 97 94 93 91 80 68 62 59 52 45 42 45 53 59 60 62 66 64 55 45 41 41 38 32 34 43 48 46 43 41 45 45 36 27
Wind_Speed
47 51 52 48 47 47 45 42 39 38 37 36 35 33 31 29 29 29 28 29 31 31 31 31 32 32 32 31 29 27 26 26 24 23 22 22 21 21 21 20 17 16 15 14 14 14 15 15 16 15 14 13 12 12 12 13 14 14 13 13 13 13 14 14 14 13 13 12 12 11 12 12 12 13 13 13 11 11 10 9 6 5 5 6 6
50 50 49 47 49 48 47 44 41 40 40 38 38 37 34 31 30 29 28 30 32 33 33 34 34 33 33 32 29 28 28 28 26 25 23 23 22 22 21 20 19 17 16 14 15 15 15 16 16 15 14 13 13 13 13 14 15 15 15 14 14 14 15 16 16 16 15 14 13 12 12 12 13 13 13 12 11 10 9 6 4 3 5 6 6
50 47 45 47 49 48 47 46 42 41 40 39 40 39 36 34 32 31 30 30 32 33 34 34 34 32 31 30 28 28 29 28 27 25 24 24 24 23 22 20 20 18 16 15 16 16 16 15 15 14 14 14 14 13 14 15 16 16 16 16 15 15 15 16 18 18 17 15 13 12 12 12 12 14 14 12 11 10 9 5 2 2 4 5 4
47 46 45 45 47 46 47 47 44 43 41 40 41 42 40 37 35 33 32 30 32 34 35 34 32 30 29 28 27 27 29 28 27 25 25 25 25 24 23 21 20 18 17 16 17 17 16 15 14 14 14 14 14 14 14 16 17 17 17 18 17 16 16 18 19 19 19 17 14 12 12 12 12 13 13 12 12 10 8 6 2 0 2 3 4
49 48 47 45 46 47 48 48 46 45 44 43 43 44 43 40 36 35 33 31 32 34 35 34 32 30 29 29 28 29 30 30 29 28 28 28 27 25 24 22 20 19 18 18 18 18 17 15 14 14 14 14 14 14 15 17 17 18 19 19 19 18 17 18 19 20 21 20 17 14 12 10 10 11 11 12 12 11 9 6 4 1 1 3 4
52 52 51 49 49 51 49 48 46 46 46 45 44 44 45 42 38 36 34 33 32 33 35 35 34 34 33 33 33 34 35 34 33 31 30 29 28 25 24 23 21 19 19 18 18 17 17 16 14 14 14 14 14 15 16 18 19 19 20 20 20 19 18 19 21 21 21 22 21 20 17 14 11 9 9 10 11 12 11 8 6 4 3 3 3
48 50 51 51 52 52 50 48 47 47 47 46 45 45 45 44 41 39 37 34 33 33 35 36 36 37 36 34 34 35 37 36 33 31 29 28 27 25 24 23 21 20 19 19 18 18 17 16 15 14 14 14 14 15 17 19 19 20 20 20 19 20 20 21 22 21 22 22 22 22 22 20 16 13 10 9 9 11 11 10 8 6 5 4 3
46 47 47 48 51 54 52 50 48 47 48 48 47 45 46 46 44 42 39 36 34 34 35 36 37 38 37 35 34 35 36 35 32 30 29 28 27 26 25 24 22 21 20 20 19 18 18 17 17 16 15 14 15 16 19 20 19 19 19 19 19 19 20 21 21 21 21 21 22 22 22 21 20 18 14 11 9 9 9 11 10 8 7 5 4
49 50 50 50 52 54 54 52 49 48 50 50 47 47 48 47 46 44 40 37 35 35 36 37 38 38 38 36 35 35 36 35 32 30 30 29 28 27 27 25 23 22 21 21 20 19 19 18 18 18 16 15 15 17 18 19 18 18 18 18 18 19 20 20 20 21 20 20 20 21 21 20 20 19 16 13 12 10 9 10 12 11 9 7 6
48 51 53 54 55 55 55 53 50 50 52 51 49 49 49 49 47 45 42 38 37 37 36 37 38 38 38 37 36 36 36 35 33 32 30 29 29 29 28 26 25 23 22 22 21 21 21 20 20 19 17 16 16 17 18 18 17 17 17 17 18 18 18 19 20 20 20 20 20 20 21 21 20 19 18 17 15 15 13 11 11 12 10 7 7
46 49 51 54 56 57 56 54 52 53 53 52 51 50 50 50 48 46 44 40 38 37 37 38 39 40 39 38 38 38 37 37 36 34 32 31 30 29 27 26 26 24 23 23 23 23 23 22 20 19 18 17 17 17 17 17 17 16 16 16 17 17 17 19 20 21 21 21 20 20 20 20 20 20 19 19 18 18 16 13 11 11 10 8 9
45 48 50 51 53 54 55 54 53 52 53 53 52 51 52 51 49 47 46 42 39 38 37 38 40 41 40 40 40 39 37 38 38 36 33 32 31 29 27 27 27 26 25 25 25 25 23 22 20 19 19 18 17 17 17 17 17 17 17 17 17 17 18 18 19 20 20 20 19 18 19 19 20 20 19 18 18 17 15 12 10 11 12 11 10
45 48 50 51 53 54 55 54 52 52 53 55 54 53 52 51 50 49 48 45 41 38 37 39 41 42 41 41 41 39 38 38 38 36 33 31 30 30 28 28 28 28 27 26 26 25 23 21 20 19 18 17 16 17 18 17 17 17 17 17 18 18 18 18 17 18 18 18 17 17 17 17 17 17 16 16 15 14 14 13 12 13 13 12 11
45 48 50 52 54 56 56 55 54 53 55 56 55 54 53 52 52 50 49 47 43 39 38 40 41 42 42 42 41 39 39 39 38 35 33 31 30 30 28 27 29 28 27 26 26 25 23 21 19 18 18 17 16 17 18 18 18 17 17 18 18 19 18 17 16 16 16 16 16 16 15 14 14 14 14 14 14 14 14 14 13 14 14 13 13
46 48 50 54 56 57 56 56 56 56 56 55 53 53 53 53 53 52 51 49 45 41 39 40 41 42 42 42 41 40 39 39 37 34 32 31 29 29 28 27 28 27 26 27 27 25 23 21 20 19 17 17 16 17 18 19 18 18 18 18 19 18 18 16 16 15 15 15 15 14 13 12 13 13 14 14 14 13 13 12 13 14 14 14 15
46 48 50 53 56 57 57 57 58 58 56 54 54 53 54 55 54 53 52 51 47 42 40 41 42 42 43 42 41 40 40 39 37 33 32 31 30 30 28 26 26 27 26 27 27 26 23 21 20 19 18 17 16 17 18 18 18 18 18 18 18 18 16 15 15 15 15 14 13 12 11 11 12 12 12 12 11 11 11 11 11 13 13 14 15
46 50 51 53 55 55 57 59 58 58 56 55 56 56 57 56 55 53 52 52 48 43 41 41 42 43 42 42 41 41 41 40 37 33 31 31 31 30 28 26 26 27 26 27 27 26 24 22 21 20 18 17 17 18 18 18 17 17 18 18 17 16 15 14 14 14 14 13 11 10 10 11 11 10 10 10 9 9 9 9 10 12 13 14 15
45 50 53 55 56 57 58 59 60 60 59 59 59 58 57 56 55 54 53 53 50 45 43 42 43 43 42 42 42 42 42 39 36 33 31 30 32 32 28 26 26 26 26 27 27 26 24 23 22 20 19 18 18 19 19 18 18 17 18 17 16 15 14 14 13 13 12 10 10 10 10 10 10 9 9 8 8 8 7 7 8 9 12 13 14
44 48 52 54 57 59 59 60 60 60 59 58 57 55 54 54 54 53 53 52 50 46 44 44 43 43 42 42 41 42 41 38 35 33 31 31 33 33 29 26 27 26 26 27 26 26 24 23 22 21 19 18 18 19 19 19 18 17 17 17 15 14 13 13 12 11 10 10 10 10 10 10 9 9 9 8 8 7 6 6 6 6 9 11 12
43 47 50 52 56 58 59 60 61 60 57 55 53 52 53 53 53 52 51 50 49 47 45 45 44 43 41 40 41 42 40 37 35 33 32 33 33 32 29 27 27 27 26 26 25 24 24 23 22 20 19 19 19 19 19 18 17 17 17 16 15 14 13 12 11 11 10 10 10 11 10 10 9 9 9 8 7 6 5 5 4 4 6 9 9
42 46 48 52 55 57 58 59 58 55 52 51 51 51 52 52 52 51 51 51 50 48 46 45 44 43 41 40 41 41 39 37 35 33 32 33 33 32 30 28 28 27 26 25 25 24 24 23 20 18 18 18 19 19 19 18 17 17 16 16 15 13 13 12 11 11 11 11 11 11 10 9 9 9 9 8 7 6 5 5 5 6 6 7 8
41 46 49 51 53 55 57 55 52 50 50 50 50 49 50 51 51 51 51 51 50 48 47 46 46 44 41 41 40 39 37 36 35 34 34 34 34 32 31 30 29 28 26 25 25 24 24 22 19 18 18 19 19 19 18 17 17 17 17 16 15 13 13 12 12 12 12 12 12 11 10 9 9 9 9 8 7 5 5 5 6 7 7 7 7
40 46 49 51 53 54 54 52 49 50 51 50 50 50 52 53 52 52 52 52 51 49 47 47 46 44 42 41 40 38 36 35 34 35 35 35 34 32 31 31 30 28 26 26 25 25 24 21 19 19 19 20 19 18 17 16 17 17 16 15 14 13 12 12 12 12 12 12 12 11 10 10 10 10 9 8 7 6 6 6 7 8 7 6 5
36 43 48 52 54 51 49 48 48 50 50 50 50 50 51 52 52 52 53 52 51 48 48 48 46 44 43 41 40 38 36 35 34 35 36 35 34 32 31 31 30 28 27 26 26 25 24 22 20 20 20 20 18 17 16 17 17 16 15 15 14 13 12 12 12 12 12 12 12 11 11 11 10 10 9 8 7 7 7 8 8 7 6 5 3
34 41 47 49 48 46 46 48 50 51 51 51 51 51 51 52 53 53 53 52 50 49 48 48 46 44 43 43 42 39 37 37 35 34 35 35 33 32 32 32 31 28 27 27 26 25 24 22 21 20 19 19 17 16 17 18 17 16 15 14 14 13 13 12 12 13 12 12 12 12 12 12 11 10 9 8 8 8 9 8 7 6 5 4 2
33 41 47 47 43 42 45 48 51 53 53 52 52 52 52 53 53 53 52 51 50 49 49 47 46 44 43 44 43 40 39 39 36 33 32 34 34 33 33 34 32 28 27 28 27 25 24 22 20 19 18 16 15 16 18 19 17 16 15 15 15 14 13 13 14 14 13 13 13 13 13 12 11 10 9 8 8 10 10 9 7 6 4 3 2
32 38 45 46 43 43 46 48 51 52 52 52 52 52 52 53 53 52 51 51 50 49 48 47 46 45 45 45 44 42 41 40 37 32 30 33 34 33 35 35 31 28 28 28 27 25 23 21 19 17 15 15 15 16 19 19 18 16 16 16 16 15 14 14 15 15 14 14 14 13 13 12 10 9 9 8 10 10 10 8 7 5 4 3 3
33 38 41 42 42 44 47 49 51 51 50 50 50 51 52 52 53 52 51 51 51 50 48 47 47 46 46 46 44 42 41 40 38 33 30 32 34 34 36 34 30 29 29 27 26 24 22 21 18 16 15 15 15 17 20 20 18 17 17 16 16 15 15 15 16 16 15 15 15 14 13 11 10 10 9 9 10 10 9 8 7 5 4 3 3
33 39 41 42 43 45 47 49 49 49 49 49 48 49 50 49 50 51 51 51 50 49 48 48 47 47 47 46 44 42 41 40 39 34 30 32 35 37 37 33 29 29 29 27 25 24 22 20 17 15 15 15 15 18 20 20 18 17 17 17 16 16 16 16 16 16 16 16 15 14 13 12 11 11 10 10 11 10 9 8 7 5 4 4 4
31 38 42 44 45 47 48 48 48 48 49 49 49 49 50 50 49 49 50 50 49 48 47 48 48 48 47 45 44 42 42 42 41 36 33 33 35 38 38 33 30 30 29 27 26 25 23 20 17 16 15 15 16 18 20 19 17 17 17 17 16 16 16 16 15 15 16 16 15 14 13 13 13 11 11 11 11 10 9 8 7 6 5 4 4
26 31 37 41 44 45 45 46 47 48 49 50 50 50 50 50 49 50 51 50 48 47 47 48 48 47 46 45 44 43 42 42 41 39 36 34 35 39 39 33 31 31 29 27 27 27 24 20 18 18 16 15 16 18 20 19 18 17 17 16 16 17 16 16 15 15 16 16 15 15 14 14 13 12 12 12 11 10 10 9 8 7 5 5 4
19 23 27 32 36 39 42 45 46 47 49 49 50 49 49 49 50 50 50 49 47 47 47 48 48 46 45 45 44 44 43 43 42 41 38 33 35 42 40 34 31 31 30 29 29 28 24 20 19 19 17 15 15 17 19 19 18 18 17 16 16 16 16 16 15 15 16 16 15 15 15 14 13 13 13 12 11 11 11 10 9 7 5 5 4
16 20 22 25 29 33 38 42 44 45 46 47 48 49 49 50 50 50 48 47 46 47 47 47 47 46 45 45 45 45 45 44 43 41 36 31 35 42 40 34 32 32 32 31 30 28 24 21 20 20 18 16 15 16 19 19 18 18 17 17 16 16 16 15 14 15 16 16 14 13 14 14 14 14 14 13 12 12 11 11 9 7 6 6 5
14 18 20 22 25 29 32 36 39 41 41 40 41 43 45 46 47 48 47 46 46 46 47 47 47 46 45 45 45 45 45 44 41 39 35 33 36 40 40 37 33 32 34 33 30 28 26 23 21 19 19 18 16 16 18 18 17 17 17 17 17 17 17 16 15 14 15 15 14 13 13 14 14 14 13 13 13 12 12 11 9 8 7 6 4
14 18 22 23 25 28 31 33 35 37 38 37 38 40 40 41 44 46 46 45 45 45 45 46 46 46 45 45 45 44 44 43 40 37 36 37 39 41 42 40 35 33 35 34 30 29 28 25 22 19 19 19 17 16 17 17 17 17 17 18 18 17 16 16 15 15 16 15 14 13 13 14 14 14 13 13 13 12 12 11 9 9 8 5 4
14 19 24 26 28 30 31 32 34 35 36 38 40 41 39 38 41 44 44 44 44 44 45 45 46 46 46 45 44 43 44 43 40 39 39 39 41 45 47 43 35 33 36 36 32 31 29 26 22 21 20 20 18 17 16 16 16 16 17 19 19 17 16 16 16 16 17 16 15 14 14 14 14 13 12 12 12 12 12 11 10 10 8 5 4
12 17 23 26 28 30 30 31 33 35 38 41 41 40 37 36 38 41 42 43 43 44 45 45 46 46 46 45 43 42 44 44 42 41 40 39 43 47 47 41 36 36 39 38 34 33 31 27 24 21 20 20 19 18 17 16 15 16 18 20 19 17 16 16 17 17 18 17 15 15 15 15 14 13 11 10 10 11 11 11 11 10 8 6 5
17 16 19 23 25 27 28 29 32 35 38 38 38 38 36 37 40 41 42 43 44 45 46 46 46 47 46 44 42 41 43 44 42 41 40 39 40 43 43 41 39 39 40 39 36 34 31 29 26 22 21 21 20 18 17 17 16 18 19 19 18 17 17 17 18 18 18 17 16 15 16 15 14 12 10 9 9 10 11 12 11 10 8 7 6
22 17 16 21 24 26 27 28 31 34 35 35 36 36 36 39 43 44 44 45 46 46 46 45 46 45 45 43 40 40 43 45 42 39 40 41 42 43 45 46 42 39 39 39 37 34 31 31 29 25 22 22 21 18 17 17 18 18 19 19 18 17 17 19 20 19 19 18 17 17 17 15 13 12 11 10 8 9 11 12 11 10 8 7 7
20 13 13 18 23 25 24 24 26 29 32 36 37 35 35 40 45 46 46 47 46 44 43 44 44 43 44 43 40 39 44 47 42 37 39 45 48 48 48 46 41 38 38 38 35 33 32 33 31 26 23 23 22 20 18 18 18 19 20 20 20 19 18 19 20 20 19 19 19 18 17 15 14 14 12 11 9 9 10 11 11 10 9 8 7
19 17 17 18 22 25 23 22 24 28 33 37 37 34 36 42 46 47 48 47 44 42 42 42 42 42 43 42 39 38 40 43 44 42 43 47 49 49 49 45 39 38 39 37 34 34 35 34 31 25 23 24 23 21 19 18 19 20 21 22 22 20 18 18 20 20 20 20 20 19 17 16 15 14 13 11 10 10 12 12 11 10 10 9 8
20 20 19 17 19 25 28 30 33 36 39 40 39 38 40 44 47 49 49 46 42 41 41 41 41 41 42 41 39 37 36 38 41 43 43 44 45 47 48 43 37 38 40 37 35 36 35 32 29 26 25 24 23 21 20 19 20 21 22 23 22 20 18 18 20 21 21 21 20 18 16 15 15 14 12 12 12 12 13 13 11 11 11 9 8
20 18 17 16 17 22 29 35 38 39 40 41 41 42 44 47 49 49 47 44 42 41 40 40 40 40 40 40 39 38 38 38 39 38 36 39 43 45 46 43 38 38 40 39 38 38 34 30 29 28 26 26 24 22 21 20 20 21 23 23 23 21 19 19 21 21 21 21 19 18 17 16 15 14 14 13 12 13 14 14 13 13 12 10 9
18 19 22 24 22 22 26 33 37 39 40 42 43 45 47 49 50 48 45 44 43 42 41 41 40 39 40 39 38 38 38 39 42 43 41 42 44 45 45 43 39 37 38 38 39 38 33 30 30 29 27 26 25 23 23 22 22 22 24 24 23 22 21 20 21 21 21 20 19 18 17 17 16 16 14 13 13 14 13 12 13 13 12 10 10
19 23 26 28 27 23 25 32 37 38 40 42 43 44 47 49 48 46 46 46 44 43 43 43 41 40 39 38 39 39 37 36 40 44 45 45 47 46 45 43 39 36 35 36 38 37 33 31 30 29 27 26 25 24 24 24 24 24 25 25 24 23 22 21 21 21 21 21 20 19 19 19 17 16 15 15 15 14 13 13 13 13 12 11 11
24 26 24 22 21 20 23 30 36 39 41 42 43 44 45 46 43 40 42 43 44 45 45 44 42 40 38 38 37 36 36 37 38 38 38 41 45 45 43 40 36 33 32 33 35 36 34 32 30 28 27 26 25 25 24 24 25 26 26 26 25 23 22 21 21 20 21 22 22 22 22 22 20 18 16 17 16 14 13 13 13 13 12 12 11
21 23 21 18 16 17 20 25 31 37 39 41 42 43 44 45 42 38 38 40 41 41 40 41 40 39 37 36 34 33 35 38 38 37 36 38 41 41 40 38 34 31 31 32 34 35 34 32 29 28 28 27 26 25 24 25 26 26 26 27 26 25 23 22 21 21 21 22 23 24 24 24 23 20 18 17 17 16 15 15 14 13 13 12 12
17 20 20 18 16 16 16 19 25 31 35 37 40 41 43 44 43 41 42 42 40 36 34 35 36 36 33 32 32 34 36 37 36 36 37 38 39 39 37 36 32 28 27 28 30 31 31 29 27 27 28 28 27 26 24 24 24 24 25 27 27 26 25 24 23 21 21 22 24 25 26 27 26 24 21 20 19 19 18 18 16 14 13 13 13
16 17 16 15 14 13 14 16 21 26 30 34 37 39 41 42 41 41 42 41 39 37 35 33 33 33 31 30 31 32 34 35 35 34 34 35 36 34 32 30 28 25 22 22 23 24 23 23 24 25 26 26 26 24 20 19 20 22 23 24 25 25 23 22 21 20 21 23 25 27 28 28 28 26 23 22 21 21 20 20 18 15 14 14 15
13 12 11 10 10 11 12 15 18 22 25 29 32 35 37 37 37 38 38 36 36 39 39 35 34 34 32 32 33 33 32 32 32 32 32 34 34 31 27 25 24 22 21 21 20 18 16 17 19 19 18 19 21 19 15 14 16 18 20 21 22 22 21 20 20 20 22 24 26 27 29 29 28 27 25 23 22 21 21 20 18 15 14 15 17
8 8 8 8 9 10 12 14 16 19 21 24 28 30 31 31 31 33 35 35 37 39 38 37 36 37 35 35 35 34 32 31 30 29 29 30 30 29 27 24 22 21 21 20 18 16 15 14 15 14 12 12 13 13 13 13 13 13 15 17 19 20 20 20 20 22 24 25 27 28 29 29 29 28 26 24 22 21 20 19 17 16 16 15 17
Wind_Direction
230 225 221 218 216 216 216 217 217 214 214 213 212 209 205 202 200 199 199 201 201 202 204 204 205 205 203 205 209 212 216 220 221 224 230 235 236 233 232 235 236 234 233 237 242 242 240 237 236 238 238 236 233 232 230 228 231 232 227 226 231 233 228 226 230 234 236 235 236 245 253 259 266 272 274 273 273 278 285 294 301 323 351 1 2
226 222 220 218 217 217 217 217 216 214 213 212 214 212 207 205 204 202 200 201 204 205 206 207 209 209 208 206 208 212 216 220 223 225 229 234 235 232 233 236 234 232 233 238 243 243 239 239 240 241 241 238 236 235 234 233 236 239 240 239 240 241 238 234 231 228 231 235 239 245 248 254 261 266 266 264 264 268 273 276 283 332 4 11 13
219 219 219 218 217 217 217 217 216 216 215 213 214 214 211 208 207 206 204 203 205 207 209 210 210 212 214 212 210 213 218 221 225 228 232 233 231 231 233 235 233 232 235 238 244 245 242 242 242 241 241 240 242 243 243 241 241 244 248 249 248 243 238 235 232 231 232 232 235 239 243 247 252 256 255 255 259 260 259 254 257 346 12 16 20
215 217 217 216 216 217 216 217 217 216 215 213 213 214 214 211 209 208 207 207 207 208 210 211 211 212 216 216 216 218 221 223 225 229 231 230 229 230 233 234 233 234 236 238 243 246 244 243 242 240 239 241 244 246 246 247 247 249 252 254 254 250 243 239 236 236 238 236 231 231 238 241 245 250 249 249 254 252 249 242 224 50 28 34 44
213 213 215 215 214 216 217 217 217 217 216 214 212 213 215 214 212 210 209 208 210 211 211 211 211 211 212 213 216 220 221 222 223 224 225 226 227 230 232 234 235 235 236 238 242 244 245 243 240 239 239 240 243 245 247 250 251 253 257 259 259 256 250 246 243 242 242 240 236 235 239 242 248 253 248 247 250 246 240 232 216 199 85 74 69
213 212 213 214 213 216 217 216 217 218 218 216 214 214 215 215 214 212 211 210 212 213 212 212 212 212 211 210 213 217 219 220 222 223 223 224 226 229 232 233 235 235 236 239 241 243 243 242 238 238 241 243 245 248 249 252 255 257 259 260 260 257 251 248 248 247 244 241 239 240 244 249 257 260 251 247 248 243 236 225 212 201 155 121 89
213 213 213 213 212 214 215 216 218 220 220 218 216 216 215 215 215 214 212 210 211 213 214 214 213 214 214 215 217 219 220 221 222 224 225 226 228 229 231 233 234 235 237 240 241 241 241 240 239 238 241 245 248 252 254 257 259 260 260 259 258 256 253 251 251 249 246 244 242 242 245 249 255 260 258 255 254 249 240 229 218 206 186 165 135
210 212 212 213 213 213 214 216 218 220 220 217 216 217 217 216 215 214 212 211 212 213 215 216 215 215 216 218 222 224 226 225 224 225 226 228 230 230 231 234 235 234 237 241 241 240 239 240 243 244 245 248 253 256 258 259 260 260 260 259 259 259 258 256 253 251 249 247 246 246 248 250 253 257 260 260 259 257 243 229 225 219 207 192 176
211 211 212 213 213 213 215 216 218 219 219 217 217 217 216 215 215 214 212 212 213 214 216 217 217 217 217 219 222 225 228 228 227 227 225 226 229 231 233 234 234 234 236 239 239 239 239 243 247 251 254 257 261 260 256 254 255 256 257 256 257 259 259 257 253 253 252 251 250 251 252 253 253 255 255 254 252 253 249 238 234 229 218 202 191
213 213 214 215 215 215 216 218 219 218 217 217 217 216 215 215 214 214 213 212 214 215 216 218 218 218 219 221 223 224 226 226 226 226 225 226 228 231 234 235 234 234 236 237 236 237 240 244 249 253 257 261 264 260 254 251 252 254 254 253 254 255 256 255 254 254 253 252 253 254 255 256 256 254 253 254 252 253 253 249 243 232 218 201 193
212 213 215 216 216 216 217 219 219 217 215 215 215 215 216 215 215 214 214 213 214 216 217 219 219 220 221 223 225 226 226 226 224 222 224 226 227 229 233 235 235 235 236 237 236 237 239 245 250 255 260 264 264 258 253 252 252 252 252 252 252 253 252 252 252 252 253 254 255 257 259 261 262 261 259 259 259 259 256 251 240 223 205 196 195
211 212 214 214 215 215 215 217 216 213 213 214 215 216 215 215 215 214 214 214 214 216 217 219 220 221 222 224 226 227 228 228 225 223 223 225 227 228 229 232 233 234 235 236 237 238 241 246 252 258 264 268 265 257 251 251 252 252 253 253 253 253 252 252 251 251 252 254 257 260 263 265 265 265 263 261 261 260 256 247 232 211 197 197 198
211 210 212 212 213 213 214 214 213 211 213 215 216 216 215 215 215 215 214 214 213 214 217 219 220 222 223 225 226 228 230 229 227 225 225 226 227 229 231 233 232 233 235 237 239 241 243 248 254 260 267 269 265 256 250 249 252 253 256 258 257 254 252 251 251 251 251 253 256 260 263 265 264 264 263 260 259 256 250 243 229 213 203 200 196
211 211 210 211 212 214 214 215 213 212 214 215 214 214 214 214 215 215 215 214 213 213 216 219 221 223 224 225 226 228 229 228 227 227 227 227 229 232 237 238 236 236 239 240 242 244 247 251 256 261 267 267 262 255 251 249 250 252 256 258 258 255 251 249 248 248 251 253 256 259 262 263 261 260 259 258 258 255 251 247 233 214 202 198 194
210 211 212 212 214 215 215 215 214 214 214 214 213 213 213 214 215 215 214 215 213 212 216 219 221 223 225 226 227 228 229 227 226 227 228 228 230 235 240 243 241 240 242 244 245 247 250 254 258 262 266 266 260 256 254 251 250 252 255 258 257 253 249 247 247 248 252 255 258 261 260 257 255 255 255 254 254 250 246 245 237 220 202 191 191
209 211 212 214 215 216 216 216 216 215 214 213 213 213 214 215 214 214 215 215 213 212 215 219 221 223 224 226 226 227 227 226 225 226 227 229 233 236 240 243 241 240 242 245 246 248 251 254 258 261 265 265 260 257 256 255 254 254 255 256 253 248 245 245 247 249 253 255 257 259 255 250 249 249 248 246 243 239 233 232 235 231 216 197 190
208 210 213 215 216 215 216 216 217 216 214 214 215 217 217 215 213 213 213 214 213 213 215 219 221 223 225 225 225 225 226 225 224 225 227 232 236 236 238 240 238 239 243 245 245 247 250 253 256 259 264 264 259 258 259 260 261 256 252 250 245 242 241 242 245 248 250 253 252 248 244 242 241 239 238 236 233 231 229 227 228 230 228 217 205
209 211 214 215 216 216 216 218 219 219 218 217 218 218 215 213 213 213 213 214 214 213 215 218 221 223 225 225 225 225 225 224 225 226 228 233 235 233 235 236 236 239 244 245 245 246 248 251 253 257 262 262 259 258 260 263 261 254 246 240 234 233 236 238 241 242 241 242 239 235 234 234 234 234 235 235 235 231 229 230 229 227 225 223 223
210 210 212 213 214 216 217 219 220 219 219 218 217 214 211 211 213 213 214 215 215 213 214 218 221 223 225 225 225 225 224 223 224 225 228 233 234 234 235 235 234 239 244 244 244 244 246 249 252 257 261 261 260 259 259 261 258 248 239 231 228 228 230 232 234 234 230 228 230 231 233 233 234 236 236 235 234 231 228 227 226 225 216 211 220
210 209 209 211 214 216 219 221 221 218 217 216 214 211 209 210 211 211 213 214 213 213 215 217 220 223 224 224 225 225 223 223 224 226 228 233 236 236 238 237 236 240 242 242 242 242 244 248 252 258 260 260 260 259 259 259 251 239 231 225 225 226 226 226 227 227 225 224 227 229 231 234 237 238 237 235 233 230 226 219 204 196 196 192 196
211 211 210 212 214 218 221 222 219 216 214 213 212 210 208 208 208 210 212 212 213 214 215 217 220 222 223 223 224 224 223 222 224 227 229 233 236 238 239 239 238 240 240 240 241 240 243 248 253 258 260 259 258 258 258 254 240 228 223 221 222 223 223 223 221 222 224 225 226 228 230 234 237 239 236 233 232 228 217 206 190 178 178 178 176
217 214 213 213 217 221 221 218 215 213 211 212 212 209 207 207 208 210 212 212 213 215 215 217 220 221 222 223 223 223 223 223 224 227 229 232 236 238 238 237 236 238 239 240 240 240 243 248 254 258 259 256 255 254 252 243 230 222 220 220 220 219 220 220 219 221 225 227 226 226 229 232 234 235 233 231 228 220 207 195 187 182 182 182 181
225 218 214 216 221 223 219 215 212 211 211 211 210 208 207 207 208 210 212 213 214 215 216 217 218 220 221 221 222 222 222 222 224 228 231 232 235 237 236 235 234 236 239 240 240 240 243 249 253 256 256 254 253 252 245 233 223 219 220 221 220 218 218 220 222 224 226 228 228 226 227 230 233 231 230 229 222 209 198 189 187 188 190 193 194
228 221 217 219 221 219 214 211 209 209 210 210 208 208 207 206 208 211 212 213 214 215 216 216 217 219 220 220 221 221 221 221 223 227 231 232 233 235 234 232 233 236 239 239 239 239 241 246 249 251 253 252 252 251 240 227 220 218 220 222 221 220 219 220 223 226 228 230 229 229 228 229 231 232 232 230 221 207 192 184 188 194 196 203 216
224 219 218 218 216 213 209 208 208 208 209 209 208 208 206 206 209 212 212 212 212 213 214 214 216 217 218 219 219 220 221 221 223 228 231 231 232 232 232 232 232 234 238 238 237 237 238 241 245 248 251 252 254 250 236 225 219 218 219 221 221 221 221 220 222 224 227 229 230 231 231 231 233 235 236 231 214 200 190 188 194 198 201 217 253
219 216 217 217 214 211 208 207 208 209 209 208 208 207 206 206 210 211 210 210 211 212 211 212 214 215 217 218 219 221 222 221 225 229 230 230 230 229 231 231 230 233 236 236 235 235 237 239 242 247 251 254 255 246 232 224 221 218 217 217 217 219 220 221 222 222 223 226 229 231 232 234 236 236 234 223 204 196 195 198 200 201 210 235 274
226 219 217 216 213 211 209 209 209 209 208 208 207 207 205 207 209 209 208 208 209 210 210 211 213 214 217 218 219 222 222 221 225 228 230 230 227 227 230 229 227 231 235 234 232 233 235 237 241 247 253 257 253 239 227 222 220 218 217 216 215 216 216 219 221 221 222 225 228 230 231 232 232 230 228 217 203 200 202 203 203 207 221 250 284
230 222 218 215 212 211 210 209 209 207 207 207 206 206 206 207 208 207 206 208 209 208 209 210 212 214 217 219 220 221 221 222 224 225 229 229 226 227 229 226 225 231 234 233 231 230 232 234 239 246 251 254 248 233 224 221 219 217 217 217 216 215 215 218 220 219 221 226 227 227 227 226 223 223 223 214 204 204 207 207 208 214 227 254 283
228 220 216 215 213 211 210 209 208 205 205 205 204 204 205 206 206 206 206 207 207 207 208 210 212 215 217 218 220 220 222 223 221 222 228 228 226 227 225 222 227 231 232 232 230 228 229 232 237 243 248 249 242 231 223 221 220 217 216 216 215 214 216 219 220 221 223 226 227 225 222 219 220 221 218 209 203 205 208 208 211 219 232 255 281
228 220 216 215 213 212 210 208 206 204 204 204 203 203 205 205 205 205 205 206 206 206 208 210 212 215 216 218 219 220 222 221 219 222 227 226 226 226 221 221 228 228 229 230 227 224 225 229 234 239 245 247 240 231 225 222 221 219 218 217 215 215 218 219 221 225 229 229 225 222 220 219 219 219 213 207 206 208 207 207 211 221 235 257 279
230 224 218 216 213 210 208 205 204 204 204 204 204 204 204 203 204 206 206 206 206 207 209 211 212 214 215 217 218 219 220 220 219 223 223 221 224 224 220 223 226 224 227 230 224 221 222 224 232 238 243 247 242 232 226 221 219 219 219 218 216 217 219 218 222 230 233 232 227 222 220 220 219 217 212 210 210 209 208 208 213 222 239 259 277
231 228 224 218 213 208 205 204 204 205 204 204 204 203 201 203 205 208 207 207 207 209 210 211 212 213 215 217 218 218 219 219 221 222 220 220 223 221 218 222 223 222 228 229 223 220 219 222 232 236 240 244 241 233 227 221 218 217 217 216 217 221 220 219 227 233 233 233 231 226 222 220 218 215 213 213 212 210 212 213 216 225 241 257 275
233 230 228 220 213 208 206 204 204 204 204 205 204 202 204 207 209 209 208 208 210 211 211 211 212 213 214 216 217 218 217 218 218 218 218 221 224 220 218 221 222 224 229 230 223 218 218 223 232 237 241 243 239 231 226 221 217 216 214 213 216 219 220 227 239 238 232 233 235 231 226 220 215 214 214 213 211 212 216 218 220 229 242 255 277
235 231 228 221 213 208 206 205 204 203 203 202 203 205 208 209 209 208 209 211 212 212 210 210 211 212 213 214 214 214 215 215 216 217 218 221 224 223 223 222 222 225 229 227 221 216 217 222 229 237 243 242 238 231 224 220 216 214 212 211 211 212 220 237 245 236 233 238 238 232 228 223 218 216 215 213 212 214 218 221 222 231 244 256 279
230 228 227 222 213 208 207 207 206 204 203 202 205 208 209 207 207 207 209 211 211 210 209 210 211 212 213 213 212 212 214 217 218 219 220 221 223 225 225 221 220 227 230 226 219 215 216 220 226 235 241 241 239 232 223 219 215 212 212 211 208 212 226 239 237 231 236 240 235 229 225 220 219 219 217 215 214 215 219 221 223 232 243 256 276
239 232 230 227 220 214 210 210 209 208 206 207 209 210 209 209 208 208 210 211 210 209 209 210 211 211 212 213 214 216 217 218 219 218 219 221 224 225 221 217 218 226 229 226 220 216 215 217 223 232 236 237 237 230 222 219 215 213 213 210 209 219 232 234 228 228 234 234 229 225 218 213 216 218 217 217 217 218 220 221 223 231 239 247 263
268 247 233 231 229 223 217 213 213 212 211 210 210 209 210 213 213 211 211 211 210 210 211 212 213 212 212 214 216 216 215 214 215 217 219 223 226 223 218 215 219 224 225 223 219 215 214 216 222 231 233 233 234 229 223 218 214 214 213 210 215 227 233 229 226 228 232 231 227 219 209 209 216 217 215 217 218 221 223 221 223 230 237 244 259
298 275 243 233 233 229 223 219 217 216 215 214 211 209 212 218 219 216 213 211 210 212 213 214 215 214 214 215 216 216 215 214 214 218 222 226 227 224 222 223 225 225 225 223 219 213 213 217 222 229 231 232 233 230 224 220 217 216 214 213 222 234 232 226 225 227 229 230 226 216 209 212 219 219 215 215 216 219 223 223 224 227 236 248 259
305 293 257 240 235 231 227 224 223 222 222 223 219 215 216 220 221 219 215 213 213 215 217 217 217 215 215 215 216 217 216 214 216 220 225 228 227 226 225 224 222 222 224 224 219 213 213 219 222 225 229 232 232 229 227 225 222 219 219 219 227 236 233 227 226 226 227 230 228 220 215 215 220 223 223 223 223 223 225 226 224 224 233 248 256
312 304 276 252 241 235 230 226 227 230 231 228 222 219 221 223 222 219 216 216 218 220 221 220 218 216 216 216 217 217 213 212 215 222 229 230 228 224 219 217 217 220 224 225 222 216 217 221 220 221 227 230 230 230 229 229 227 224 224 225 229 237 237 231 230 228 227 230 231 226 220 218 221 226 230 235 239 235 229 225 221 223 232 243 251
303 299 292 272 250 244 240 235 235 238 238 232 225 225 228 226 221 218 219 222 223 223 221 220 218 217 216 216 217 218 216 215 217 222 228 230 228 224 220 217 217 221 222 222 222 220 221 222 220 221 228 229 229 231 229 228 229 228 228 229 233 239 242 238 236 233 230 232 234 230 225 223 226 230 234 244 251 243 229 221 219 225 232 238 246
293 294 296 286 258 246 245 243 241 239 238 234 230 231 230 224 219 220 224 226 224 221 221 220 219 218 217 217 217 219 221 221 221 222 225 225 224 225 224 221 219 220 220 219 222 223 222 221 220 224 230 231 231 231 228 228 231 231 232 235 239 244 246 243 240 235 233 236 237 232 230 231 233 238 245 254 257 244 229 223 222 228 232 234 240
296 294 293 292 274 254 249 247 245 241 237 233 230 230 225 220 219 224 227 225 221 221 222 221 220 220 219 219 218 218 219 219 218 219 224 227 226 225 225 222 218 219 220 220 223 224 220 217 219 225 229 232 232 230 228 230 232 233 235 239 244 247 247 246 245 239 237 239 237 233 234 237 240 248 253 253 248 236 227 223 223 229 234 234 235
300 294 285 278 269 260 253 249 245 242 236 230 227 225 221 219 222 226 225 222 221 222 221 220 220 220 219 219 219 219 219 218 216 215 217 224 227 225 223 219 216 218 223 224 224 222 217 215 220 224 227 230 230 229 230 231 232 234 238 241 244 247 247 247 247 243 241 242 238 234 238 242 246 253 251 238 229 225 220 216 218 227 234 233 231
282 284 277 265 255 249 244 241 239 236 230 224 221 219 218 221 225 226 224 222 221 219 218 217 217 216 216 218 218 217 218 222 223 219 215 217 221 222 221 217 214 216 223 225 224 222 219 219 222 225 228 230 230 230 231 231 231 234 239 241 243 245 247 248 247 244 243 244 239 236 239 243 248 252 240 222 217 214 207 207 218 228 235 234 231
266 269 264 257 252 245 237 234 231 227 223 219 217 216 218 222 224 222 220 220 218 215 214 213 212 213 215 217 217 216 218 221 222 218 213 215 218 218 218 217 215 217 222 224 225 223 221 221 224 228 230 230 230 232 234 234 233 235 237 239 240 241 243 245 244 242 242 242 239 237 240 242 245 247 238 224 217 211 203 209 223 231 237 237 233
258 262 260 257 255 247 238 232 226 222 219 218 217 217 219 222 220 216 215 216 214 211 208 207 209 211 212 215 217 219 220 217 212 207 206 210 214 214 215 216 218 219 220 221 223 225 224 224 227 231 232 230 230 233 236 237 237 237 237 237 236 236 237 237 238 239 240 241 239 238 240 242 242 244 240 229 219 213 210 215 223 231 238 239 233
246 254 257 258 257 252 243 232 223 218 216 216 216 217 220 221 220 216 214 212 212 212 207 205 208 210 211 214 218 219 218 214 208 204 203 207 210 212 215 219 221 222 221 219 220 223 226 227 228 232 235 233 232 235 239 243 244 243 240 237 234 234 235 235 236 239 240 240 239 239 240 241 241 242 240 231 223 220 219 221 224 229 235 236 233
232 241 247 251 253 252 243 229 220 217 215 216 217 218 220 221 221 218 213 210 213 217 214 209 210 212 213 215 217 218 217 212 206 202 204 208 212 212 214 220 225 227 228 228 227 228 233 236 234 235 238 240 240 243 249 254 254 251 246 242 237 237 238 238 240 244 244 242 240 240 241 241 242 242 240 235 230 228 227 227 226 227 231 236 236
228 233 236 239 241 242 237 229 224 221 219 219 219 220 221 222 223 221 215 211 213 214 212 209 210 212 213 214 214 214 213 208 203 200 203 208 212 213 216 222 226 226 229 233 235 238 245 248 244 243 249 254 255 256 257 257 255 252 248 244 240 239 240 241 245 249 248 245 243 242 242 243 242 242 240 238 236 234 234 234 231 229 234 238 237
235 231 223 222 225 227 228 227 227 226 224 224 224 223 223 223 224 222 217 213 212 209 205 204 206 208 210 211 210 210 208 205 203 203 204 206 209 212 216 221 225 228 231 234 236 239 243 244 242 243 249 253 251 246 239 235 235 237 238 236 234 234 235 238 243 249 249 247 245 244 243 242 242 242 241 240 240 240 239 239 237 236 240 244 243